Regional Weather Roundup
Issued by NWS

Home | Current Version | Previous Version | Graphics & Text | Print | Product List | Glossary Off
Versions: 1 2 3 4 5 6 7 8 9 10 11 12 13 14 15 16 17 18 19 20 21 22 23 24 25 26 27 28 29 30 31 32 33 34 35 36 37 38 39 40 41 42 43 44 45 46 47 48 49 50

576
ASUS43 KTOP 231808
RWRKS

WEATHER ROUNDUP FOR KANSAS
NATIONAL WEATHER SERVICE GOODLAND KS
1200 PM CST THU NOV 23 2017

NOTE:  "FAIR" INDICATES FEW OR NO CLOUDS BELOW 12,000 FEET WITH NO
SIGNIFICANT WEATHER AND/OR OBSTRUCTIONS TO VISIBILITY.

KSZ001>006-013>018-027>032-041>047-231900-
NORTHWEST KANSAS

CITY           SKY/WX    TMP DP  RH WIND       PRES   REMARKS
GOODLAND       CLOUDY    66  40  38 W7        30.10F
6HR MIN TEMP:  40; 6HR MAX TEMP:  67;

HAYS           SUNNY     63  41  44 NW6       30.06F
HILL CITY      SUNNY     68  43  40 VRB5      30.06F
6HR MIN TEMP:  38; 6HR MAX TEMP:  68;

RUSSELL        SUNNY     65  41  41 S6        30.04F
6HR MIN TEMP:  34; 6HR MAX TEMP:  65;

$$

KSZ061>065-074>080-084>089-231900-
SOUTHWEST KANSAS

CITY           SKY/WX    TMP DP  RH WIND       PRES   REMARKS
DODGE CITY     SUNNY     68  41  37 NW6       30.09F
6HR MIN TEMP:  42; 6HR MAX TEMP:  68;

ELKHART        SUNNY     70  43  37 W3        30.15F
GARDEN CITY    SUNNY     66  40  38 W7        30.10F
6HR MIN TEMP:  38; 6HR MAX TEMP:  66;

GREAT BEND     SUNNY     66  42  41 VRB3      30.06F
LIBERAL        SUNNY     67  40  37 NW10      30.12F
PRATT          SUNNY     67  38  34 NE6       30.07F
6HR MIN TEMP:  39; 6HR MAX TEMP:  67;

$$

KSZ066>073-081>083-090>101-231900-
SOUTHEAST KANSAS

CITY           SKY/WX    TMP DP  RH WIND       PRES   REMARKS
CHANUTE        SUNNY     55  29  36 SW6       30.06F
6HR MIN TEMP:  34; 6HR MAX TEMP:  55;

COFFEYVILLE    SUNNY     56  26  31 SW6       30.07F
6HR MIN TEMP:  30; 6HR MAX TEMP:  56;

HUTCHINSON     SUNNY     68  39  34 VRB3      30.04F
6HR MIN TEMP:  31; 6HR MAX TEMP:  69;

MEDICINE LODGE   N/A     72  40  31 NE5       30.05F
NEWTON         SUNNY     64  36  35 CALM      30.05F
PARSONS        SUNNY     55  28  35 S8        30.07F
6HR MIN TEMP:  32; 6HR MAX TEMP:  55;

WICHITA INTL   MOSUNNY   60  33  36 CALM      30.05F
6HR MIN TEMP:  31; 6HR MAX TEMP:  60;

WICHITA JABRA  SUNNY     61  32  33 CALM      30.05F
6HR MIN TEMP:  32; 6HR MAX TEMP:  61;

WICHITA MCCONL SUNNY     59  29  32 CALM      30.05F
WINFIELD       SUNNY     59  30  33 SW5       30.07F
6HR MIN TEMP:  31; 6HR MAX TEMP:  59;

$$

KSZ007>012-019>026-033>040-048>060-102>105-231900-
NORTHEAST KANSAS

CITY           SKY/WX    TMP DP  RH WIND       PRES   REMARKS
CONCORDIA      SUNNY     65  39  38 VRB3      30.02F
6HR MIN TEMP:  35; 6HR MAX TEMP:  65;

EMPORIA        SUNNY     60  33  36 CALM      30.04F
6HR MIN TEMP:  29; 6HR MAX TEMP:  60;

LAWRENCE       SUNNY     57  31  37 CALM      30.03F
6HR MIN TEMP:  29; 6HR MAX TEMP:  57;

MANHATTAN      SUNNY     59  33  37 S5        30.03F
6HR MIN TEMP:  30; 6HR MAX TEMP:  59;

MARYSVILLE     SUNNY     63  37  39 W3        30.01F
OLATHE IND     SUNNY     54  32  43 W3        30.03F
6HR MIN TEMP:  34; 6HR MAX TEMP:  54;

OLATHE EXE     SUNNY     53  31  42 SW6       30.02F
6HR MIN TEMP:  32; 6HR MAX TEMP:  53; 6HR PCP: TRACE;

SALINA         SUNNY     62  38  40 CALM      30.04F
6HR MIN TEMP:  33; 6HR MAX TEMP:  62;

TOPEKA BILLARD SUNNY     57  34  41 VRB3      30.03F
6HR MIN TEMP:  30; 6HR MAX TEMP:  57;

TOPEKA FORBES  SUNNY     61  35  37 VRB5      30.03F
6HR MIN TEMP:  32; 6HR MAX TEMP:  61;

$$




USA.gov is the U.S. government's official web portal to all federal, state and local government web resources and services.